FW7196 Weather Reports


time (UTC)temp
F
wind
direction
speed
knots
gust
knots
rain 1hr
in
rain 24hr
in
rain mn
in
humidity
%
barometer
mb
20260831053047 59 0 0.0 0.0 0.00 0.01 0.01 94 1019.4
20260831051541 59 0 0.0 0.0 0.00 0.01 0.01 94 1019.4
20260831050055 60 0 0.0 0.0 0.01 0.01 0.01 94 1019.2
20260831044555 60 0 0.0 0.0 0.01 0.01 0.01 95 1019.0
20260831043043 61 0 0.0 0.0 0.01 0.01 0.01 95 1018.9
20260831041559 61 0 0.0 0.0 0.01 0.01 0.01 95 1018.9
20260831040043 61 0 0.0 0.0 0.00 0.00 0.00 94 1018.9
20260831034549 61 0 0.0 0.0 0.00 0.00 0.00 94 1018.6
20260831033048 61 0 0.0 0.0 0.00 0.00 0.00 94 1018.6
20260831031543 61 0 0.0 0.0 0.00 0.00 0.00 94 1018.6
20260831030053 62 0 0.0 0.0 0.00 0.00 0.00 94 1018.6
20260831024544 62 0 0.0 0.0 0.00 0.00 0.00 93 1018.7
20260831023044 62 0 0.0 0.0 0.00 0.00 0.00 93 1018.5
20260831021547 62 0 0.0 0.0 0.00 0.00 0.00 93 1018.4
20260831020051 62 0 0.0 0.0 0.00 0.00 0.00 92 1018.5
20260831014549 63 0 0.0 0.0 0.00 0.00 0.00 92 1018.2
20260831013054 63 0 0.0 0.0 0.00 0.00 0.00 91 1018.0
20260831011548 64 0 0.0 0.0 0.00 0.00 0.00 91 1017.9
20260831010107 64 0 0.0 0.9 0.00 0.00 0.00 90 1017.7
20260831004544 65 0 0.0 0.0 0.00 0.00 0.00 88 1017.7
20260831003052 66 0 0.0 0.9 0.00 0.00 0.00 86 1017.5
20260831001547 67 0 0.0 1.7 0.00 0.00 0.00 83 1017.4
20260831000045 68 79 0.0 2.6 0.00 0.00 0.00 79 1017.2
20260830234546 69 0 0.0 5.2 0.00 0.00 0.00 76 1017.0
20260830233050 69 149 0.0 3.5 0.00 0.00 0.00 75 1016.7
20260830231546 69 148 0.9 7.0 0.00 0.00 0.00 74 1016.5
20260830230045 69 0 0.0 5.2 0.00 0.00 0.00 74 1016.6
20260830224548 69 70 0.0 3.5 0.00 0.00 0.00 76 1016.6
20260830223045 68 0 0.0 1.7 0.00 0.00 0.00 81 1016.6
20260830221545 69 0 0.0 0.0 0.00 0.00 0.00 86 1016.3
20260830220047 69 0 0.0 0.0 0.00 0.00 0.00 85 1016.4
20260830214544 70 0 0.0 0.0 0.00 0.00 0.00 84 1016.4
20260830213048 70 0 0.0 0.0 0.00 0.00 0.00 84 1016.5
20260830211544 70 0 0.0 0.0 0.00 0.00 0.00 83 1016.5
20260830210044 71 0 0.0 0.0 0.00 0.00 0.00 81 1016.6
20260830204544 71 0 0.0 0.0 0.00 0.00 0.00 80 1016.8
20260830203048 72 0 0.0 0.0 0.00 0.00 0.00 79 1016.9
20260830201549 71 0 0.0 0.0 0.00 0.00 0.00 74 1016.9
20260830200044 71 0 0.0 0.9 0.00 0.00 0.00 74 1017.1
20260830194559 71 0 0.0 1.7 0.00 0.00 0.00 75 1017.2
20260830193049 71 26 0.0 0.9 0.00 0.00 0.00 74 1017.3
20260830191545 71 0 0.0 1.7 0.00 0.00 0.00 77 1017.5
20260830190041 70 191 0.0 1.7 0.00 0.00 0.00 79 1017.6
20260830184547 69 187 0.0 0.9 0.00 0.00 0.00 79 1017.8
20260830183044 69 0 0.0 0.9 0.00 0.00 0.00 83 1018.0
20260830181545 68 0 0.0 0.0 0.00 0.00 0.00 85 1018.1
20260830180050 67 0 0.0 1.7 0.00 0.00 0.00 85 1018.5
20260830174603 66 0 0.0 3.5 0.00 0.00 0.00 86 1018.6
20260830173049 65 0 0.0 0.0 0.00 0.00 0.00 91 1018.9
20260830171547 65 0 0.0 0.0 0.00 0.00 0.00 92 1019.1
20260830170046 64 0 0.0 0.0 0.00 0.00 0.00 91 1019.4
20260830164542 64 0 0.0 0.0 0.00 0.00 0.00 92 1019.4
20260830163054 64 0 0.0 0.0 0.00 0.00 0.00 91 1019.5
20260830161558 64 0 0.0 1.7 0.00 0.00 0.00 91 1019.7
20260830160044 64 0 0.0 1.7 0.00 0.00 0.00 89 1020.2
20260830154551 64 0 0.0 1.7 0.00 0.00 0.00 86 1020.0
20260830153042 65 0 0.0 0.0 0.00 0.00 0.00 82 1019.4
20260830151555 65 0 0.0 0.9 0.00 0.00 0.00 80 1020.1
20260830150044 66 0 0.9 2.6 0.00 0.00 0.00 77 1020.1
20260830144543 66 0 0.0 1.7 0.00 0.00 0.00 78 1019.9
20260830143048 67 142 0.0 3.5 0.00 0.00 0.00 79 1020.0
20260830141544 67 0 0.0 3.5 0.00 0.00 0.00 78 1019.8
20260830140111 66 184 0.0 2.6 0.00 0.00 0.00 77 1019.9
20260830134548 65 126 0.9 3.5 0.00 0.00 0.00 78 1019.7
20260830133049 64 0 0.0 2.6 0.00 0.00 0.00 80 1019.8
20260830132441 64 292 0.0 0.0 0.00 0.00 0.00 79 1019.9
20260830131944 64 275 0.0 0.0 0.00 0.00 0.00 79 1019.8
20260830131547 63 0 0.0 1.7 0.00 0.00 0.00 80 1019.8
20260830131447 64 259 0.0 0.9 0.00 0.00 0.00 79 1019.8
20260830130939 64 168 0.0 0.9 0.00 0.00 0.00 80 1019.8
20260830130438 63 76 0.0 0.9 0.00 0.00 0.00 80 1019.8
20260830130054 62 0 0.0 2.6 0.00 0.00 0.00 80 1019.8
20260830124547 61 105 0.0 4.3 0.00 0.00 0.00 83 1019.9
20260830123054 60 0 0.0 0.0 0.00 0.00 0.00 86 1019.8
20260830121542 60 0 0.0 0.0 0.00 0.00 0.00 87 1020.0
20260830120046 59 0 0.0 0.0 0.00 0.00 0.00 87 1020.1
20260830114546 58 0 0.0 0.0 0.00 0.00 0.00 90 1020.1
20260830113053 57 0 0.0 0.0 0.00 0.00 0.00 90 1020.1
20260830111545 57 0 0.0 0.0 0.00 0.00 0.00 90 1020.3
20260830110048 57 0 0.0 0.0 0.00 0.00 0.00 89 1020.2
20260830104549 57 0 0.0 0.0 0.00 0.00 0.00 89 1020.2
20260830103047 57 0 0.0 0.0 0.00 0.00 0.00 90 1020.2
20260830101556 56 0 0.0 0.0 0.00 0.00 0.00 89 1020.2
20260830100044 56 0 0.0 0.0 0.00 0.00 0.00 89 1020.2
20260830094546 56 0 0.0 0.0 0.00 0.00 0.00 90 1020.3
20260830093043 56 0 0.0 0.0 0.00 0.00 0.00 90 1020.3
20260830091544 56 0 0.0 0.0 0.00 0.00 0.00 90 1020.4
20260830090045 56 0 0.0 0.0 0.00 0.00 0.00 90 1020.3
20260830084546 55 0 0.0 0.0 0.00 0.00 0.00 90 1020.5
20260830083048 55 0 0.0 0.0 0.00 0.00 0.00 91 1020.6
20260830081545 55 0 0.0 0.0 0.00 0.00 0.00 91 1020.5
20260830080048 55 0 0.0 0.0 0.00 0.00 0.00 91 1020.6
20260830074544 55 0 0.0 0.0 0.00 0.00 0.00 90 1020.8
20260830073050 55 0 0.0 0.0 0.00 0.00 0.00 91 1020.7
20260830071558 54 0 0.0 0.0 0.00 0.00 0.00 92 1020.7
20260830070044 54 0 0.0 0.0 0.00 0.00 0.00 92 1020.7
20260830064550 54 0 0.0 0.0 0.00 0.00 0.00 93 1020.7
20260830063052 53 0 0.0 0.0 0.00 0.00 0.00 92 1020.7
20260830061547 54 0 0.0 0.0 0.00 0.00 0.00 92 1020.9
20260830060045 54 0 0.0 0.0 0.00 0.00 0.00 92 1021.0
20260830054549 54 0 0.0 0.0 0.00 0.00 0.00 92 1021.1